Total_Precipitation_Accumulation
2.64 2.79 2.75 2.83 2.73 2.87 2.83 2.63 2.36 2.23 2.08 1.81 1.67 1.67 1.68 1.65 1.71 1.78 1.93 2.00 2.03 2.27 2.65 2.88 2.80 2.67 2.71 2.77 2.84 2.86 2.82 2.74 2.63 2.46 2.30 2.18 2.14 2.17 2.10 2.12 2.04 1.97 1.92
3.10 3.12 3.13 3.16 2.96 2.92 2.96 2.84 2.56 2.40 2.26 2.03 1.75 1.67 1.69 1.87 1.89 1.82 1.98 2.09 2.03 2.09 2.41 2.84 3.07 3.19 3.28 3.34 3.22 2.98 2.93 2.90 2.92 2.81 2.61 2.38 2.29 2.21 2.13 2.18 2.20 2.08 2.02
3.51 3.41 3.50 3.53 3.36 3.23 3.19 3.13 3.01 2.69 2.50 2.38 2.22 2.06 1.94 1.95 2.09 2.20 2.21 2.28 2.31 2.27 2.42 2.68 2.97 3.21 3.36 3.56 3.51 3.29 3.11 3.08 3.14 3.11 2.99 2.75 2.57 2.40 2.31 2.25 2.26 2.24 2.07
3.96 4.06 3.88 3.65 3.52 3.41 3.39 3.51 3.31 2.99 2.87 2.87 2.73 2.39 2.10 2.14 2.24 2.29 2.31 2.38 2.55 2.46 2.50 2.48 2.62 2.88 3.14 3.41 3.58 3.64 3.55 3.51 3.43 3.31 3.21 3.09 2.96 2.77 2.58 2.52 2.40 2.31 2.21
4.21 4.34 4.23 4.01 3.83 3.71 3.67 3.42 3.42 3.31 3.29 3.20 2.78 2.54 2.23 2.15 2.21 2.18 2.23 2.32 2.54 2.64 2.66 2.44 2.52 2.84 3.05 3.32 3.60 3.82 3.95 3.93 3.77 3.67 3.56 3.48 3.38 3.15 2.89 2.72 2.59 2.49 2.43
4.66 4.61 4.42 4.26 4.17 4.06 3.92 3.74 3.72 3.67 3.45 3.28 2.82 2.60 2.39 2.17 2.13 2.14 2.13 2.21 2.27 2.30 2.40 2.44 2.48 2.42 2.66 3.01 3.35 3.69 4.00 4.27 4.14 3.88 3.72 3.76 3.70 3.47 3.28 3.09 2.89 2.77 2.67
5.15 5.05 4.90 4.75 4.49 4.22 4.08 3.98 3.81 3.67 3.40 3.28 3.13 2.84 2.43 2.11 2.10 2.07 2.00 2.07 2.11 2.07 2.15 2.24 2.42 2.37 2.27 2.56 2.76 3.15 3.61 4.11 4.33 4.23 4.07 4.01 3.95 3.75 3.52 3.29 3.16 3.07 2.92
5.78 5.56 5.49 5.21 4.84 4.55 4.23 3.99 3.80 3.53 3.27 3.25 3.29 3.36 2.89 2.45 1.97 1.69 1.73 1.76 1.76 1.79 1.90 2.02 2.09 2.14 2.08 2.20 2.26 2.49 2.85 3.24 3.70 3.98 4.03 4.00 3.95 3.81 3.65 3.48 3.30 3.26 3.29
5.84 5.46 5.23 5.12 4.84 4.38 4.08 3.90 3.71 3.49 3.26 3.16 3.14 3.39 3.17 2.75 2.26 1.92 1.69 1.57 1.60 1.73 1.80 1.93 1.97 1.93 1.84 1.88 1.93 2.06 2.21 2.36 2.82 3.33 3.63 3.67 3.66 3.57 3.52 3.55 3.54 3.43 3.38
5.41 5.08 4.81 4.54 4.30 3.97 3.74 3.50 3.40 3.35 3.26 3.06 3.02 2.87 2.68 2.52 2.51 2.24 1.93 1.75 1.69 1.72 1.69 1.65 1.68 1.74 1.77 1.78 1.81 1.81 1.87 1.98 2.26 2.61 2.96 3.14 3.21 3.22 3.20 3.20 3.25 3.28 3.37
4.70 4.28 4.02 3.79 3.56 3.31 3.09 2.90 2.87 2.96 3.00 2.92 2.88 2.83 2.71 2.59 2.48 2.32 2.15 2.06 2.00 1.86 1.72 1.64 1.60 1.60 1.58 1.61 1.64 1.67 1.76 1.75 1.84 2.03 2.30 2.48 2.63 2.79 2.88 2.95 3.01 3.14 3.30
3.98 3.58 3.28 3.07 2.81 2.60 2.43 2.35 2.30 2.34 2.48 2.55 2.59 2.59 2.58 2.66 2.62 2.58 2.39 2.26 2.20 2.05 1.89 1.76 1.67 1.62 1.56 1.58 1.63 1.81 1.68 1.68 1.75 1.77 1.87 1.99 2.11 2.29 2.46 2.65 2.83 3.07 3.34
3.04 2.79 2.51 2.31 2.11 2.04 2.01 2.04 2.05 2.06 2.11 2.18 2.29 2.37 2.39 2.41 2.45 2.61 2.73 2.55 2.32 2.06 1.94 1.79 1.66 1.63 1.61 1.63 1.63 1.68 1.53 1.47 1.49 1.51 1.61 1.73 1.83 1.98 2.11 2.22 2.38 2.58 2.83
2.04 1.93 1.85 1.69 1.65 1.67 1.66 1.74 1.79 1.83 1.88 1.90 1.89 2.07 2.21 2.16 2.12 2.25 2.49 2.55 2.44 2.20 1.93 1.75 1.58 1.54 1.52 1.50 1.60 1.59 1.42 1.47 1.39 1.32 1.28 1.33 1.43 1.55 1.70 1.79 1.92 2.04 2.18
1.63 1.50 1.48 1.45 1.42 1.48 1.51 1.56 1.55 1.51 1.58 1.66 1.67 1.80 1.91 1.89 1.84 1.84 1.98 2.15 2.30 2.27 1.94 1.63 1.54 1.47 1.44 1.42 1.51 1.29 1.30 1.38 1.30 1.22 1.15 1.10 1.17 1.25 1.34 1.37 1.44 1.55 1.69
1.46 1.35 1.25 1.22 1.18 1.17 1.23 1.38 1.40 1.37 1.38 1.38 1.41 1.53 1.60 1.59 1.61 1.59 1.64 1.74 1.94 2.10 1.99 1.54 1.40 1.36 1.40 1.28 1.34 1.18 1.20 1.23 1.12 1.05 0.97 0.94 0.93 1.02 1.08 1.09 1.13 1.21 1.37
1.22 1.15 1.05 0.99 0.96 0.94 1.00 1.15 1.22 1.24 1.28 1.26 1.21 1.19 1.24 1.30 1.39 1.36 1.40 1.49 1.66 1.85 1.91 1.60 1.41 1.36 1.40 1.41 1.40 1.34 1.18 1.03 0.97 0.98 0.90 0.88 0.85 0.86 0.96 0.95 0.96 0.98 1.09
1.03 1.00 0.95 0.91 0.87 0.88 0.97 1.02 1.04 1.04 1.11 1.10 1.08 1.07 1.06 1.14 1.24 1.25 1.28 1.32 1.44 1.61 1.73 1.71 1.52 1.39 1.36 1.38 1.40 1.40 1.15 0.94 0.88 0.96 0.91 0.85 0.85 0.82 0.88 0.92 0.91 0.89 0.86
0.96 0.93 0.90 0.91 0.91 0.88 0.92 0.93 0.92 0.95 1.00 1.02 1.02 0.99 0.98 1.06 1.10 1.12 1.16 1.20 1.25 1.29 1.44 1.46 1.32 1.26 1.23 1.25 1.40 1.39 1.29 1.24 0.90 0.85 0.87 0.80 0.82 0.80 0.77 0.80 0.83 0.84 0.78
0.93 0.87 0.86 0.86 0.83 0.80 0.84 0.86 0.85 0.92 1.00 0.96 0.89 0.88 0.89 0.89 0.92 1.01 1.03 1.13 1.24 1.33 1.38 1.38 1.28 1.17 1.19 1.24 1.47 1.54 1.46 1.32 1.10 0.79 0.82 0.78 0.77 0.76 0.75 0.79 0.75 0.76 0.79
0.90 0.89 0.84 0.81 0.75 0.73 0.73 0.77 0.76 0.76 0.89 0.89 0.86 0.86 0.81 0.77 0.77 0.82 0.85 0.96 1.14 1.32 1.38 1.42 1.34 1.24 1.24 1.40 1.45 1.39 1.38 1.26 1.11 0.91 0.90 0.83 0.84 1.01 1.22 1.29 1.09 0.86 0.81
0.90 0.91 0.91 0.87 0.78 0.68 0.75 0.74 0.65 0.70 0.81 0.85 0.88 0.87 0.79 0.71 0.66 0.66 0.65 0.72 0.91 1.13 1.32 1.47 1.43 1.34 1.27 1.37 1.47 1.42 1.48 1.48 1.36 1.07 1.09 1.00 1.00 1.37 1.77 1.96 1.56 1.02 0.88
0.88 0.93 0.95 0.95 0.88 0.77 0.78 0.72 0.67 0.69 0.79 0.92 0.95 0.92 0.78 0.67 0.75 0.74 0.72 0.68 0.72 0.82 1.08 1.39 1.53 1.41 1.36 1.45 1.59 1.57 1.58 1.60 1.51 1.26 1.33 1.32 1.25 1.52 1.56 1.66 1.59 1.18 1.06
0.88 0.95 0.98 0.93 0.89 0.81 0.78 0.70 0.66 0.67 0.72 0.81 0.85 0.85 0.93 0.95 0.83 0.77 0.71 0.75 0.84 0.91 0.96 1.04 1.26 1.30 1.20 1.26 1.44 1.50 1.54 1.52 1.45 1.40 1.46 1.54 1.40 1.48 1.39 1.69 1.86 1.68 1.47
0.91 0.95 0.95 0.92 0.90 0.83 0.72 0.66 0.68 0.71 0.68 0.68 0.67 0.69 0.77 0.84 0.77 0.71 0.73 0.84 0.92 0.99 0.85 0.93 1.02 1.16 1.24 1.18 1.19 1.29 1.51 1.68 1.67 1.47 1.41 1.52 1.52 1.56 1.67 1.96 1.95 1.91 1.81
0.88 0.88 0.92 0.93 0.88 0.82 0.66 0.58 0.64 0.65 0.67 0.66 0.69 0.71 0.68 0.63 0.64 0.64 0.73 0.91 1.02 1.01 1.07 1.24 1.39 1.48 1.44 1.36 1.23 1.30 1.58 1.77 1.80 1.72 1.44 1.58 1.73 1.85 2.14 2.22 2.09 1.89 1.84